Tracking 19831 objects as of 23-Aug-2019
HD Live streaming from Space Station
objects crossing your sky now

COSMOS 2251 DEB

Track COSMOS 2251 DEB now!
10-day predictions


NORAD ID: 35904
Int'l Code: 1993-036AUT
Perigee: 686.2 km
Apogee: 726.7 km
Inclination: 74.0 °
Period: 98.8 minutes
Semi major axis: 7077 km
RCS: 0.0063 m2 (small)
Launch date: June 16, 1993
Source: Commonwealth of Independent States (former USSR) (CIS)
Launch site: PLESETSK MISSILE AND SPACE COMPLEX (PKMTR)

Note: This is SATELLITE DEBRIS
aabbcc
Your satellite tracking list
Your tracking list is empty




NASA's NSSDC Master Catalog

Two Line Element Set (TLE):
1 35904U 93036AUT 19234.00757477 +.00000534 +00000-0 +12173-3 0  9997
2 35904 074.0270 357.1912 0028613 345.5368 014.4974 14.58116547323970
Source of the keplerian elements: AFSPC